Theta_e
343 344 350 349 350 353 354 354 354 354 354 354 354 354 354 353 352 352 352 351 351 350 349 349 349 349 349 348 348 348 348 348 348 349 349 350 350 351 350 349 348 349 348 347 346 345 345 346 346 345 344 343 342 342 343 345 345 346 345 345 345 346 348 348 348 347 346 348 349 349 348 348 348 349 350 350 351 351 349 349 350 349 348 351 350
341 346 350 352 351 354 354 355 355 355 354 354 354 353 354 353 352 351 351 351 350 350 349 349 349 348 348 350 350 349 349 349 348 348 349 349 349 350 350 349 348 348 348 348 347 347 346 346 345 345 344 343 342 340 339 340 342 343 343 343 343 344 346 347 347 347 347 346 347 347 348 347 347 348 349 349 350 350 348 348 348 350 349 350 351
344 346 349 352 349 353 355 354 355 355 355 354 354 353 353 352 352 351 351 351 350 350 349 348 348 348 349 349 349 349 349 348 349 349 349 349 349 349 349 349 348 347 348 347 346 346 345 345 344 344 343 342 340 339 338 336 337 339 340 341 342 342 343 346 346 347 347 346 347 346 345 347 346 346 347 348 349 349 347 347 347 348 348 349 349
343 345 349 349 346 350 354 355 355 354 354 354 353 353 352 352 351 351 351 350 350 349 349 348 348 348 348 348 348 348 348 348 348 348 348 348 349 348 349 348 348 347 347 347 346 346 345 345 344 342 341 340 339 338 336 335 334 335 337 339 339 341 341 344 345 346 345 345 345 345 346 346 346 346 346 347 348 348 347 347 347 347 348 348 349
344 345 349 351 353 350 352 354 355 355 354 354 353 353 352 352 352 351 351 350 350 349 349 348 348 347 348 348 347 347 348 348 348 347 348 348 348 348 348 349 348 348 347 347 346 346 345 346 344 343 341 339 338 336 335 334 335 335 335 336 337 339 341 341 344 346 344 344 344 343 346 345 347 345 346 346 346 345 345 345 346 347 347 347 347
343 345 349 350 352 355 349 353 355 354 354 353 353 352 352 352 351 351 350 350 350 349 348 348 347 347 347 347 347 348 347 348 347 347 347 347 347 347 348 347 348 347 347 347 346 345 345 344 343 341 339 337 336 335 334 335 335 335 336 335 337 339 341 342 342 343 344 342 343 345 346 347 346 345 346 345 346 345 345 344 344 345 345 345 346
342 345 348 349 350 351 347 353 355 354 354 353 353 352 353 352 351 351 350 350 350 349 349 348 347 347 347 347 347 347 347 347 347 346 346 346 346 347 347 347 347 347 346 346 346 346 344 343 341 338 336 334 332 332 333 335 336 336 336 338 338 340 340 341 341 340 339 343 345 345 344 345 346 348 345 345 346 345 344 345 344 344 344 344 344
342 346 349 349 351 349 346 353 354 354 354 353 353 353 352 352 351 351 350 350 350 349 349 348 347 346 347 347 347 347 347 347 347 346 346 346 346 346 347 347 347 347 346 346 345 345 344 342 340 336 334 332 330 330 332 334 335 335 338 338 339 340 341 340 340 339 339 342 345 344 344 345 346 347 345 345 345 345 344 344 343 344 343 342 343
341 345 348 348 350 345 346 349 354 355 354 354 353 352 352 352 351 351 350 350 349 348 348 348 347 346 345 346 347 347 347 347 346 347 346 345 345 345 347 346 345 345 345 344 344 344 343 341 339 337 335 332 329 329 331 333 335 336 338 338 339 339 338 337 338 338 341 344 343 343 344 344 345 346 345 344 345 344 344 344 343 342 342 341 342
341 345 348 348 350 342 346 348 354 354 354 354 353 353 352 351 351 350 350 350 349 348 347 348 347 345 345 346 346 346 347 347 347 346 346 345 346 346 347 346 345 344 344 343 342 343 342 341 339 338 335 332 329 329 330 332 334 336 337 338 338 337 337 337 338 339 342 343 343 343 345 344 344 345 345 344 344 345 343 341 342 342 341 341 341
342 345 348 348 350 341 346 350 352 352 353 353 352 352 352 351 351 350 350 349 349 348 347 348 348 346 346 346 347 346 346 346 347 346 346 346 346 346 347 346 345 344 342 342 342 342 341 340 338 337 335 331 329 328 330 331 333 335 337 338 337 336 336 337 336 339 342 340 340 342 343 342 343 345 344 343 344 343 342 342 343 342 342 341 341
341 345 348 347 345 339 345 348 350 353 352 352 352 351 350 351 350 350 349 349 349 347 346 347 347 347 345 346 347 346 346 347 346 345 346 345 346 346 346 345 344 343 342 342 343 341 340 339 339 337 333 330 328 327 329 331 333 334 336 337 336 336 335 334 336 338 341 339 339 341 341 340 341 342 342 342 343 343 341 341 341 342 342 341 342
341 342 344 346 349 339 342 346 347 351 352 351 351 351 349 349 350 350 349 349 348 347 346 346 347 347 347 346 347 346 347 347 346 345 345 345 345 345 346 344 343 342 342 342 342 342 342 340 338 334 331 328 326 326 328 329 330 333 335 335 334 333 332 330 336 338 339 339 339 341 342 342 343 342 340 342 342 341 340 340 340 340 340 340 340
339 341 342 343 346 340 338 341 344 347 351 351 351 351 350 350 349 350 349 349 348 348 347 345 347 347 347 347 346 346 346 346 345 345 345 345 345 345 345 344 343 342 342 341 340 340 341 340 337 334 330 327 325 325 327 329 330 331 333 333 331 330 328 331 334 336 336 337 339 340 340 340 340 340 337 338 339 339 338 338 338 338 337 337 337
336 339 341 343 344 347 336 337 341 342 346 350 349 350 350 350 350 349 349 349 349 349 346 347 347 346 346 346 346 346 346 347 345 345 345 344 344 344 343 343 343 342 341 339 338 338 340 338 335 332 329 326 324 325 326 327 328 330 332 330 329 327 325 334 335 335 335 337 337 338 339 339 341 337 336 337 336 336 335 335 336 336 336 335 334
337 338 340 340 343 345 347 339 335 337 342 344 346 347 347 349 349 349 349 348 349 349 349 348 347 347 346 346 345 346 346 346 346 342 344 343 343 343 342 342 342 341 339 339 338 340 339 337 334 331 329 326 324 324 325 326 328 330 330 329 327 325 323 325 335 335 334 334 336 337 337 338 339 335 334 335 335 334 333 333 333 334 334 333 332
336 337 338 339 341 342 345 347 344 331 335 337 341 342 343 346 348 349 348 349 348 349 348 348 348 347 346 346 346 345 345 346 345 344 343 342 342 342 342 341 341 341 339 338 338 340 338 335 332 331 328 326 323 324 324 325 327 329 329 328 325 324 322 321 335 334 334 336 337 337 336 337 338 334 333 334 334 334 332 332 333 332 332 331 331
334 337 338 339 340 340 342 344 346 347 349 341 335 338 341 344 345 345 345 345 346 347 347 347 347 346 345 344 342 342 343 344 345 343 342 342 341 341 341 340 340 339 337 339 339 338 336 334 332 330 328 325 323 323 323 324 326 328 327 325 323 322 321 322 334 333 334 334 335 337 335 333 336 334 333 332 332 332 332 332 331 329 328 329 329
329 332 334 335 337 339 340 342 344 346 348 347 348 348 334 339 340 341 341 343 344 343 344 343 342 343 342 338 336 336 336 337 337 340 339 339 338 335 339 340 339 337 337 338 338 337 335 333 332 330 327 325 324 322 321 322 325 326 324 322 319 318 317 325 332 333 334 333 333 334 335 333 333 333 334 332 332 332 331 329 329 328 328 326 325
321 320 323 326 331 335 338 340 341 343 345 347 347 348 338 332 337 338 337 340 340 341 340 338 336 336 334 332 329 335 333 341 328 339 334 338 335 337 336 339 340 336 337 338 337 336 335 333 332 329 327 325 323 322 320 321 322 323 321 320 318 315 328 327 330 330 330 330 331 332 330 332 332 334 332 332 332 331 329 328 328 326 327 325 328
316 316 316 316 321 328 334 337 339 341 343 345 346 347 347 331 333 332 333 334 336 337 337 331 328 327 330 324 325 347 346 347 347 345 330 345 329 329 333 338 339 338 340 338 337 336 335 333 331 329 326 321 318 315 316 316 317 318 317 316 313 324 324 326 327 327 328 328 329 332 327 332 330 332 332 331 330 330 328 328 328 327 328 329 327
313 314 315 315 316 318 324 333 338 339 341 344 345 345 347 339 348 348 348 342 333 331 342 348 338 347 325 337 344 344 344 344 345 339 344 344 336 325 330 335 338 335 337 338 336 336 335 333 332 329 324 320 316 323 315 312 311 313 313 312 322 320 322 324 325 324 326 327 326 326 326 331 330 330 330 330 329 328 328 328 328 327 326 325 327
311 313 314 314 315 316 317 322 333 338 339 342 344 344 345 346 347 346 348 337 343 344 344 346 348 346 345 344 342 345 345 344 344 341 341 328 338 324 329 332 333 332 336 337 336 336 335 334 332 327 322 317 324 321 315 312 312 307 310 316 316 318 320 322 322 323 323 324 325 319 323 328 331 330 330 329 329 328 327 327 326 325 327 326 326
310 311 313 315 315 316 316 317 325 335 338 340 342 343 343 345 346 347 346 346 347 347 347 347 347 346 345 344 344 345 345 345 328 325 332 341 338 324 324 327 328 328 330 334 333 335 334 333 330 324 322 323 326 321 315 311 309 309 310 310 313 316 317 317 318 319 319 322 324 315 320 324 328 331 330 329 328 328 327 327 326 327 326 326 326
310 311 314 313 315 316 317 318 320 329 336 337 339 341 343 344 343 343 343 344 345 345 344 346 345 345 346 344 345 345 345 343 343 341 341 340 340 340 339 339 338 336 327 337 337 337 334 335 330 326 330 328 325 322 319 314 311 309 308 308 309 312 313 314 314 315 317 317 320 313 316 321 324 328 331 331 328 327 327 327 327 326 325 325 323
310 311 310 312 315 317 318 319 318 325 334 336 337 340 341 342 342 343 342 341 343 344 344 343 345 344 344 344 344 344 344 343 343 341 339 340 339 339 339 339 338 337 333 335 335 336 336 334 333 331 328 327 324 321 318 315 313 309 308 309 308 309 310 310 311 312 312 312 314 309 314 318 321 325 327 331 333 329 327 326 328 327 326 326 325
308 310 312 313 315 316 318 319 318 325 333 336 336 338 340 342 343 344 342 340 341 340 342 343 341 343 342 344 341 341 341 340 340 339 338 339 338 337 337 337 336 334 334 336 333 334 334 333 331 331 328 325 321 318 315 311 311 309 309 308 308 308 308 309 309 309 311 311 313 309 310 314 316 320 323 327 331 333 333 326 327 327 326 326 325
308 308 311 313 313 314 319 319 318 326 333 336 336 337 339 341 342 340 341 340 340 342 341 341 341 340 340 340 338 340 340 339 340 339 339 338 336 337 337 336 336 334 333 333 333 333 333 332 332 330 326 325 322 319 316 313 311 310 309 308 308 307 308 308 309 310 310 311 311 311 310 311 313 314 318 322 326 331 333 334 327 328 327 325 327
305 306 308 311 312 314 321 320 320 326 332 335 335 337 339 339 340 341 338 336 339 340 339 338 337 338 339 338 338 338 339 338 338 340 340 336 336 335 335 334 335 335 334 331 330 330 330 331 329 328 328 326 323 322 320 317 317 314 313 310 309 308 308 308 309 309 310 309 310 310 308 310 312 313 314 316 320 325 331 333 334 331 327 327 327
304 306 306 309 311 313 321 322 323 327 332 333 335 337 338 339 338 334 331 333 332 330 331 330 330 329 330 332 334 336 337 337 337 338 337 338 336 334 334 334 334 333 330 329 327 329 330 329 329 328 327 326 324 323 321 321 319 317 316 314 312 310 309 308 309 309 309 310 310 310 308 308 310 313 314 314 315 320 325 329 332 333 333 327 327
305 305 306 308 310 314 320 322 326 330 332 332 335 329 325 326 326 326 325 324 324 323 324 324 323 322 323 325 325 328 332 334 334 333 334 331 331 332 332 333 332 329 328 327 326 327 327 328 328 327 326 325 324 321 321 321 321 318 315 314 313 312 312 312 312 311 310 310 310 310 312 307 307 309 312 314 313 316 319 324 327 331 331 330 328
303 303 304 307 310 316 320 322 324 326 325 323 321 321 320 319 319 319 319 318 318 318 318 318 318 318 319 320 321 323 326 326 326 327 327 326 325 324 323 323 322 323 323 323 321 320 321 320 321 321 321 322 321 319 318 319 321 319 317 315 314 315 315 315 314 313 312 311 310 309 309 311 309 308 310 312 313 314 316 319 323 325 329 330 330
302 302 304 307 309 314 318 320 321 320 320 319 318 317 317 316 315 316 315 315 316 315 315 315 315 316 317 318 319 320 321 322 323 323 323 323 322 321 320 320 321 322 320 319 319 319 318 318 316 316 317 318 320 319 317 318 319 319 318 316 316 316 315 316 316 315 313 311 310 309 309 310 310 309 309 309 312 312 314 316 319 322 325 327 329
300 302 305 306 307 314 317 317 316 315 314 315 314 312 312 312 312 311 311 311 310 310 310 311 312 313 315 316 317 318 318 319 320 320 321 320 319 318 318 318 319 319 318 318 316 316 315 314 313 317 314 316 317 316 317 318 320 320 320 317 317 317 316 316 316 315 313 311 310 309 308 308 308 309 311 310 309 311 313 315 316 319 322 323 325
299 300 302 303 307 312 314 313 312 312 310 309 308 307 307 307 307 307 308 308 307 307 307 308 309 309 311 312 314 315 316 316 317 317 317 317 316 315 315 316 318 318 318 318 317 316 316 314 314 314 314 314 313 313 311 313 313 316 318 317 317 317 316 315 315 314 312 311 309 309 309 308 308 308 310 308 308 308 309 312 315 317 319 321 322
297 298 301 303 305 307 310 309 308 307 306 305 305 305 303 303 303 303 303 304 303 303 302 303 303 304 305 307 308 310 312 312 315 316 314 314 314 313 314 316 316 316 315 315 316 315 316 314 312 313 314 313 312 311 309 309 311 314 316 316 316 315 314 314 314 313 312 310 309 309 308 307 308 307 306 306 308 308 306 308 311 313 315 316 319
297 298 299 302 303 305 307 308 306 306 304 303 304 303 302 302 301 301 301 302 301 301 300 300 301 301 301 302 302 304 307 308 309 310 311 311 311 311 312 312 313 313 312 312 312 312 313 312 309 308 310 310 308 307 307 305 306 308 312 313 313 312 312 312 311 311 310 309 309 308 307 307 307 304 307 307 307 307 307 306 308 309 309 311 314
297 298 299 301 303 304 304 306 306 305 304 302 302 302 301 300 300 299 299 298 298 299 299 299 299 299 300 300 301 301 303 305 307 307 307 308 309 309 308 309 309 309 309 309 308 308 309 310 308 307 307 307 304 303 303 303 302 304 306 309 311 310 310 310 309 306 307 307 307 307 306 305 306 306 306 307 307 307 308 308 308 307 307 308 312
297 297 299 301 303 302 302 302 303 303 303 303 302 301 301 300 298 298 298 297 296 296 297 297 297 297 298 300 301 301 301 304 305 305 304 305 306 306 305 306 307 307 307 305 304 305 306 306 307 306 304 303 303 302 300 300 301 303 305 307 309 309 309 308 306 306 305 305 305 304 306 306 305 305 305 306 305 306 307 307 306 307 307 309 310
296 297 299 300 301 301 302 302 303 303 303 303 303 301 300 300 298 297 295 295 295 294 295 295 296 295 296 297 299 300 300 301 303 304 304 304 304 305 305 306 305 305 304 304 303 303 304 306 306 307 307 306 303 303 304 303 304 306 307 308 310 309 307 306 306 305 304 306 306 305 305 305 304 305 305 305 305 305 305 306 306 306 307 308 309
295 296 298 298 298 299 300 299 301 302 303 302 302 301 299 297 296 295 293 293 293 294 293 294 294 294 295 295 296 296 298 298 300 301 302 301 302 302 303 303 304 303 302 302 303 304 304 306 306 305 305 304 302 303 303 304 305 305 307 308 309 309 307 305 303 304 306 307 306 305 303 304 305 304 304 304 304 305 305 305 305 305 306 307 306
295 296 296 297 298 299 299 299 299 299 299 300 299 297 296 295 294 293 292 292 292 292 291 292 292 293 294 294 294 295 295 295 296 297 298 299 299 299 300 300 301 301 301 301 301 301 302 303 304 305 305 303 301 302 302 304 302 300 301 303 306 308 308 304 303 305 306 307 305 304 304 304 304 303 303 303 304 304 304 304 304 304 305 305 305
294 295 296 297 297 298 298 299 299 298 298 298 297 295 295 295 293 292 291 290 292 292 292 292 292 292 292 293 293 293 294 294 294 294 295 295 295 296 296 297 298 299 298 298 299 299 300 300 301 301 302 302 301 301 301 301 299 300 303 302 301 300 304 302 304 303 304 304 303 305 305 304 303 304 303 303 303 303 303 304 303 303 304 304 304
294 294 295 295 296 297 297 297 297 296 295 294 293 293 293 293 293 292 292 292 291 292 292 292 292 292 291 292 292 293 293 293 293 293 293 294 294 293 294 294 294 295 295 294 295 295 296 298 298 299 301 299 299 299 301 300 299 299 297 297 298 299 297 300 297 301 304 303 304 304 303 302 304 304 303 302 302 303 303 304 303 303 303 303 303
292 293 293 293 294 295 296 296 296 295 295 294 293 293 292 292 292 293 293 292 293 292 291 290 290 290 290 290 290 292 292 292 292 292 292 293 293 293 293 293 293 293 294 293 292 293 294 295 296 296 297 297 295 297 298 299 299 300 297 296 297 296 295 295 296 299 302 301 302 302 302 302 302 301 301 301 302 302 302 302 303 303 303 303 303
291 291 292 293 294 294 295 295 295 295 294 295 295 295 294 293 293 292 290 290 289 289 288 288 288 288 288 290 290 291 291 291 291 291 292 291 292 292 293 292 292 292 293 292 292 292 292 293 293 294 294 296 293 292 292 297 296 297 299 298 297 293 292 294 295 292 298 300 301 301 301 301 301 300 299 300 300 301 301 301 302 302 302 303 302
289 290 291 291 292 293 293 293 293 293 293 293 293 293 293 293 292 292 291 289 288 288 289 289 289 289 290 289 289 290 290 290 290 290 291 291 291 291 291 291 291 291 291 291 291 291 292 292 293 292 292 293 293 290 290 291 292 293 295 296 296 296 296 294 290 291 288 294 296 297 298 300 299 297 297 299 299 299 299 299 299 300 301 301 302
289 290 290 290 291 291 291 291 291 291 292 292 292 293 292 292 291 291 290 289 288 288 289 289 290 290 289 289 289 289 289 290 289 290 290 290 290 290 291 290 290 290 289 289 289 290 291 291 291 292 292 291 292 290 289 290 288 289 292 292 292 292 295 296 295 290 288 285 287 293 296 296 295 295 297 296 295 297 298 298 298 299 299 300 300
289 289 289 289 290 290 290 290 290 290 291 292 292 292 292 291 291 290 289 289 289 289 289 290 289 289 289 289 289 289 289 289 289 289 289 289 289 289 290 289 289 288 288 289 288 288 288 288 289 289 290 289 290 290 289 289 289 288 289 289 290 290 291 292 292 291 287 286 286 287 287 291 292 293 294 293 295 295 295 296 297 298 299 300 300
288 288 289 289 290 290 289 289 289 290 290 291 291 291 292 291 291 290 289 289 289 289 290 289 289 289 288 288 288 288 288 288 288 288 289 288 289 289 288 288 287 287 286 286 286 286 287 287 288 288 288 288 289 289 288 288 289 289 289 289 287 287 288 288 288 288 288 289 285 285 287 286 285 288 291 292 292 292 293 294 296 297 298 299 300
288 288 289 289 290 289 289 289 289 289 290 290 291 291 291 291 291 291 290 289 290 289 289 288 288 288 287 288 287 288 288 288 288 288 288 288 288 288 288 288 288 287 287 287 287 287 287 287 287 288 287 287 287 288 288 287 288 288 288 287 286 286 286 285 285 286 286 285 285 285 286 287 286 285 289 293 291 291 291 294 294 295 297 297 298
Wind_Speed
7 8 8 9 7 7 12 12 13 13 14 13 13 13 14 13 13 12 11 11 10 10 9 9 10 9 9 10 10 11 11 10 10 9 9 9 10 9 9 10 11 12 13 13 13 12 12 12 12 12 12 13 12 12 12 12 12 12 12 11 12 12 12 12 12 12 11 11 12 12 12 11 12 12 12 13 14 13 13 12 10 9 9 12 15
11 8 7 10 7 6 11 13 13 13 14 13 12 13 13 13 12 12 12 11 10 10 9 9 9 9 10 10 9 10 10 9 9 9 10 9 10 10 9 10 10 12 13 13 13 12 12 12 12 12 12 12 12 12 12 11 11 10 10 10 10 10 10 10 10 10 10 9 9 9 8 12 12 11 13 13 13 13 12 13 13 8 9 14 15
6 8 7 10 7 5 9 11 12 13 13 13 12 12 12 12 12 12 12 11 10 10 9 8 8 9 10 10 9 9 9 9 9 9 9 9 9 10 10 10 10 11 12 12 12 11 11 12 12 12 13 13 12 12 12 12 10 10 9 9 9 9 9 9 9 8 8 8 5 5 10 10 11 12 11 13 14 13 12 13 12 11 10 14 13
7 8 7 9 4 3 7 9 10 11 12 12 11 12 12 11 12 12 11 11 11 10 9 9 9 9 9 9 9 9 9 9 8 9 9 9 8 9 9 10 10 11 12 12 12 11 11 12 12 12 12 12 12 12 11 11 10 10 9 8 8 7 7 7 7 8 7 6 4 2 5 6 8 10 11 11 12 13 11 12 13 13 14 15 16
6 9 7 9 9 6 5 8 8 11 12 12 12 12 12 12 12 12 11 11 11 10 9 9 8 8 8 9 9 8 8 8 8 8 9 9 9 8 9 10 10 11 11 11 10 11 11 12 11 11 11 11 11 10 10 10 9 9 8 7 7 7 6 5 6 6 6 4 4 3 5 7 7 10 10 11 11 11 11 12 12 12 12 14 15
6 8 8 10 11 11 5 8 9 11 10 11 11 12 12 12 11 11 11 10 10 10 9 8 8 8 8 8 8 8 8 8 7 8 8 8 8 8 8 8 9 9 9 9 11 11 12 12 11 11 11 11 11 11 10 10 9 8 8 7 6 6 6 5 4 6 3 1 5 3 4 5 6 6 8 9 11 11 10 11 12 12 11 11 12
6 7 8 10 10 11 7 9 10 12 12 12 12 12 11 11 10 10 10 10 9 9 8 8 8 8 8 8 8 8 8 7 7 7 7 7 7 8 7 8 9 10 9 9 10 10 11 11 10 11 11 11 10 10 9 9 9 8 8 7 6 6 5 5 5 5 4 7 3 3 4 4 5 4 8 9 9 11 11 11 11 11 11 11 11
6 6 8 9 9 10 8 8 11 12 12 12 11 12 12 11 10 10 10 9 9 8 8 8 7 7 7 7 8 7 7 7 6 7 7 7 8 8 8 8 8 9 9 8 8 9 10 10 10 10 10 10 10 9 9 8 8 8 8 7 7 7 7 7 6 5 6 2 3 4 3 4 4 5 8 7 9 9 10 11 11 11 11 12 9
6 7 8 9 8 9 6 7 10 11 13 12 11 12 12 11 10 8 10 10 8 7 8 8 7 7 7 7 7 7 7 6 6 6 6 6 6 8 8 8 8 8 7 7 8 9 10 10 10 10 9 9 9 8 8 8 8 8 8 7 7 7 7 6 5 2 3 2 2 3 3 3 4 5 8 8 10 10 10 7 9 10 12 11 10
6 6 7 8 8 6 4 4 7 10 12 11 11 12 12 11 10 10 10 10 10 8 7 7 6 7 7 7 6 6 6 6 6 6 6 6 7 7 8 8 7 6 6 6 7 8 9 9 9 9 9 9 8 8 8 8 8 8 8 8 7 7 6 5 2 2 0 1 3 4 4 9 4 5 8 8 9 11 10 10 10 9 8 9 11
5 5 6 7 7 6 2 2 4 7 10 9 10 12 12 11 10 10 9 9 9 8 7 8 6 7 7 8 7 6 6 5 6 6 6 6 7 7 9 8 6 3 7 8 7 5 7 8 8 8 10 10 9 8 8 8 8 8 9 9 7 7 6 3 8 1 1 1 2 3 4 6 2 5 7 7 9 10 9 7 7 9 10 10 10
3 3 4 6 8 3 1 1 1 5 6 8 11 10 11 10 10 9 8 8 8 7 7 7 7 6 7 7 8 7 6 7 5 6 6 6 6 7 8 7 8 9 9 9 10 7 4 6 7 9 9 9 8 8 8 7 8 8 8 8 8 6 5 2 4 2 2 2 3 2 3 1 4 7 8 7 9 10 9 9 10 11 10 11 11
2 2 2 5 6 5 1 1 1 3 6 9 10 11 10 11 10 9 9 8 8 6 5 6 5 6 4 5 6 5 6 6 7 6 6 6 6 7 7 7 8 9 9 9 9 9 8 8 7 8 9 9 8 8 8 7 7 8 8 8 7 6 3 6 1 2 2 2 2 1 3 3 5 3 5 8 8 9 9 8 9 9 9 10 10
1 2 3 4 4 6 1 1 1 1 4 7 9 9 11 10 10 9 8 7 6 5 4 5 5 4 7 6 4 4 4 6 6 5 5 6 7 7 7 7 7 7 9 9 7 6 6 7 8 8 8 8 7 7 7 7 7 7 8 8 7 5 3 1 2 2 2 2 2 2 2 1 4 4 4 6 7 8 8 7 7 8 8 9 9
1 3 3 3 4 6 3 1 1 1 1 5 6 8 10 10 9 8 8 7 6 5 5 4 3 4 4 5 6 5 3 5 6 6 6 5 6 6 6 6 6 6 7 7 5 4 6 7 8 8 8 7 7 7 7 7 7 7 7 8 7 6 7 2 1 3 3 2 3 2 2 3 5 3 6 5 5 6 5 5 6 7 8 8 8
2 2 2 3 3 4 5 5 1 1 1 1 5 6 5 7 8 8 7 6 6 5 5 4 3 2 4 3 4 4 1 4 3 4 5 5 5 6 5 4 5 6 6 6 5 7 7 8 8 8 7 7 7 7 7 6 6 7 7 7 7 6 6 8 2 2 2 2 2 1 2 4 8 4 4 6 5 4 5 5 5 5 6 7 7
4 2 2 1 2 3 5 6 5 0 1 1 2 4 6 6 7 7 6 6 5 5 6 5 3 3 1 2 3 5 5 2 3 6 5 3 4 5 3 4 4 5 6 7 9 10 8 7 7 7 7 7 7 7 6 6 6 6 6 6 6 6 5 9 2 2 2 2 1 1 2 4 7 4 3 4 5 5 4 4 5 5 5 5 6
6 5 4 2 1 2 3 5 5 7 8 4 2 1 5 6 5 5 6 5 4 5 5 4 2 3 3 1 3 5 3 3 3 2 3 3 2 1 2 2 4 6 8 9 10 9 8 7 7 7 7 7 7 7 6 6 6 6 6 6 5 5 4 7 2 1 2 2 1 1 1 8 7 4 3 3 3 3 4 4 5 5 5 5 5
7 6 5 5 4 3 3 4 5 7 9 9 9 6 2 6 6 3 4 7 7 7 6 5 5 3 4 4 3 3 4 5 7 3 2 4 6 2 2 2 2 6 8 9 9 9 8 7 7 7 7 8 7 7 6 6 6 6 6 6 5 4 4 4 2 2 1 1 2 1 5 10 7 4 5 5 3 4 3 4 4 4 4 4 3
5 7 5 5 6 4 3 3 4 6 7 8 8 9 6 3 5 5 3 6 8 8 8 7 6 6 6 4 2 3 4 4 8 6 4 2 5 7 5 3 2 5 8 10 9 8 8 7 7 7 7 7 7 7 7 7 6 6 6 6 4 6 2 2 2 2 2 2 3 2 8 11 9 6 5 5 5 3 4 4 3 4 3 3 2
4 5 6 6 5 5 5 4 4 5 7 8 8 8 5 6 5 8 7 5 5 7 6 7 7 7 7 6 4 5 6 3 5 2 5 4 3 4 5 4 3 5 7 9 10 8 8 8 7 7 6 6 6 7 8 8 7 7 6 5 6 3 3 2 3 2 3 3 3 4 11 11 8 6 4 4 4 4 4 3 3 2 2 4 1
5 5 5 7 6 5 6 5 5 6 6 6 6 7 6 5 9 6 6 7 7 5 6 6 4 5 3 4 5 5 5 4 2 4 3 4 5 3 7 3 3 6 7 8 9 9 10 9 7 7 6 5 0 0 3 4 5 5 4 4 4 3 3 3 3 3 3 3 4 7 12 12 8 6 5 4 4 4 3 2 2 3 3 2 3
6 6 5 7 6 5 5 5 5 5 6 7 5 6 8 6 7 7 4 6 7 5 6 6 5 4 3 4 5 5 4 4 2 1 1 4 2 5 7 4 5 6 7 8 9 10 11 10 9 7 7 4 1 1 2 1 1 3 3 1 3 3 4 3 3 3 3 4 3 10 11 12 10 7 6 4 4 3 3 2 2 2 2 2 1
7 6 6 5 6 6 6 6 6 5 6 5 5 6 6 7 7 6 5 4 6 6 7 6 5 5 4 5 5 5 4 4 7 6 4 4 4 5 4 7 9 8 9 6 6 5 9 10 10 9 5 1 2 2 2 1 1 2 2 2 2 3 3 3 3 3 3 3 3 11 11 12 12 11 8 5 4 3 3 3 2 2 1 1 2
7 7 6 7 8 7 6 5 5 6 5 5 5 5 5 6 6 6 6 6 4 4 6 7 7 6 6 5 5 4 5 5 5 4 5 3 3 4 5 5 6 6 8 5 5 5 6 5 4 4 0 1 1 2 2 2 2 1 2 2 2 2 2 2 3 3 3 3 4 9 10 11 12 12 11 8 5 3 3 4 4 2 2 3 3
7 6 8 8 9 8 7 5 4 4 5 5 5 4 5 5 5 4 5 6 6 2 1 2 3 4 5 5 6 6 6 6 5 5 5 4 4 4 4 5 4 3 5 5 4 4 3 2 3 2 1 1 1 1 2 3 2 2 2 2 2 2 2 2 2 2 3 3 3 8 7 10 11 11 11 11 12 8 3 4 5 4 2 2 4
7 7 7 8 8 8 8 6 3 3 4 3 3 4 5 4 5 4 5 4 3 3 4 4 3 2 4 3 4 5 6 5 6 6 6 5 4 4 4 4 4 3 2 2 4 4 3 2 2 2 2 2 2 1 1 1 2 2 2 1 2 2 2 1 1 2 2 2 2 4 6 8 10 10 11 12 12 13 12 5 5 6 5 4 2
6 8 7 7 7 8 8 4 1 3 3 4 4 3 3 3 3 3 4 2 3 2 5 4 3 3 3 3 4 5 3 3 6 7 6 4 3 2 2 3 4 4 5 4 3 3 2 2 2 1 2 2 2 2 1 1 0 1 1 1 2 2 2 2 2 2 2 2 2 4 4 6 7 9 9 10 12 14 14 14 6 6 7 4 6
8 9 8 8 8 8 7 4 3 3 5 5 4 3 3 3 1 2 1 1 0 2 3 4 5 4 4 4 2 5 6 5 5 5 4 4 3 3 2 3 4 3 3 2 1 2 2 2 2 2 1 1 1 1 1 1 1 1 2 1 2 2 2 2 3 2 2 3 3 2 2 3 5 6 8 9 10 11 14 14 15 10 6 8 8
9 8 8 7 8 9 7 5 5 5 5 5 5 4 3 4 4 9 9 8 9 10 11 9 8 8 9 9 8 6 4 3 4 3 2 2 0 1 2 1 2 1 1 1 1 1 2 2 1 1 1 1 1 1 1 0 1 1 2 2 2 2 2 2 3 3 3 3 3 1 4 2 3 5 6 7 8 9 10 12 14 15 14 8 6
9 10 9 8 8 8 8 6 4 5 6 6 6 9 10 9 9 8 8 8 9 9 9 9 9 7 7 8 8 9 7 7 5 3 5 4 3 2 2 2 3 3 2 2 3 3 3 2 3 2 1 1 1 1 2 2 1 1 1 3 3 3 3 2 3 3 3 3 3 3 1 3 2 4 4 5 6 7 8 10 11 13 13 13 11
9 10 8 9 9 9 8 8 8 8 10 11 10 10 9 9 9 8 8 8 8 8 9 8 7 7 8 8 8 8 8 7 8 7 7 6 6 6 6 5 5 4 4 4 4 4 4 5 6 6 5 4 3 2 3 4 3 3 3 3 3 4 4 4 4 4 4 4 4 4 4 3 2 1 3 4 6 6 7 7 8 10 11 12 12
6 8 9 9 10 9 9 10 9 11 11 12 10 8 9 9 9 8 8 8 8 8 8 7 6 6 7 9 9 8 7 7 7 8 7 7 6 7 6 5 5 5 5 5 6 6 5 4 4 4 4 3 3 2 1 2 3 3 3 3 4 4 3 4 5 4 5 4 4 4 4 4 5 2 5 2 4 4 5 5 6 7 8 10 12
6 7 9 10 8 5 7 8 11 12 12 11 9 9 9 8 8 8 8 10 8 8 7 7 7 7 7 9 8 9 9 7 7 8 8 8 8 7 6 6 6 6 5 5 5 5 5 4 3 2 4 4 5 5 5 4 4 3 3 3 4 4 4 4 3 4 4 4 4 4 4 5 4 5 4 3 4 3 3 4 5 6 6 7 8
6 7 8 8 9 8 7 8 10 11 11 11 11 10 8 9 8 7 8 8 8 8 8 7 8 8 7 8 10 10 10 11 10 8 8 8 8 8 9 8 7 7 7 5 5 5 5 4 3 4 3 3 3 3 3 4 5 5 4 4 4 4 4 4 3 3 3 3 3 3 3 4 4 5 5 5 2 4 2 5 7 7 7 7 7
7 7 6 7 9 9 9 10 12 13 12 10 10 10 10 9 10 10 9 9 9 9 8 8 8 8 8 9 10 10 10 10 10 10 9 9 9 9 8 7 7 7 6 6 7 7 5 4 5 3 3 3 3 4 3 3 3 5 5 4 4 4 5 5 4 4 3 3 3 2 3 4 4 4 6 5 6 4 1 4 6 8 8 9 10
6 7 7 7 8 9 9 11 12 11 12 12 12 11 11 11 11 10 10 10 10 9 8 7 8 8 8 9 9 9 10 10 10 9 8 8 8 8 7 8 7 5 5 6 7 6 5 5 5 4 4 3 3 2 2 3 4 5 5 4 3 3 4 4 4 4 3 3 3 3 3 3 3 3 4 4 5 6 1 0 4 6 6 7 9
6 6 6 6 7 7 8 9 10 11 10 10 10 10 10 11 10 10 11 11 11 9 8 8 9 8 8 8 9 8 8 9 9 8 9 8 8 7 8 8 6 6 8 9 8 6 6 5 6 5 4 4 3 4 4 2 2 3 4 5 4 3 3 3 3 3 3 4 4 4 4 4 4 4 3 4 4 4 5 3 3 7 7 6 7
5 6 6 6 7 7 7 8 9 9 10 11 11 10 11 12 10 10 11 11 10 9 8 9 8 8 8 9 8 8 8 9 9 9 7 7 7 7 7 6 5 6 8 8 7 7 7 7 6 5 4 4 4 3 3 3 3 3 3 4 4 4 3 2 2 2 2 3 4 4 3 3 3 3 4 4 4 4 5 5 5 6 5 3 7
5 5 7 7 8 8 7 8 8 8 8 8 7 8 8 8 9 8 11 10 9 9 9 9 8 9 9 9 9 9 9 9 10 9 9 8 8 8 8 9 9 8 9 10 9 8 7 5 6 5 4 4 6 5 5 4 3 2 3 4 3 3 3 2 1 1 2 3 4 3 3 3 3 4 4 4 4 4 4 5 5 5 5 5 6
6 6 7 8 7 6 7 9 6 7 6 6 6 7 7 7 8 10 10 8 8 8 9 9 9 9 9 9 10 9 10 10 10 10 9 9 9 8 9 10 9 10 10 10 9 9 8 6 4 6 7 6 7 7 8 5 4 5 4 3 3 2 2 1 2 3 4 4 4 3 3 3 4 4 4 3 4 4 4 5 5 5 5 5 6
6 6 7 7 7 7 9 7 6 8 8 8 8 9 8 7 8 8 8 8 8 8 9 8 8 8 10 10 10 10 11 11 10 10 10 10 9 9 9 9 9 9 9 9 10 9 10 10 7 5 6 7 8 9 9 7 5 7 8 6 2 2 2 3 3 6 9 6 3 2 3 4 4 4 3 4 4 4 4 5 5 6 6 6 6
5 6 6 7 7 7 8 7 7 8 8 8 9 10 9 9 9 9 9 9 9 9 9 9 9 10 10 11 10 10 10 10 11 10 9 10 10 10 9 8 9 8 8 9 9 10 9 10 10 7 5 7 7 8 10 10 6 7 4 4 4 6 2 4 5 12 10 4 2 4 4 3 4 4 4 5 5 6 5 5 5 6 6 6 6
4 5 6 7 6 7 7 8 8 9 10 10 12 12 13 13 12 12 11 10 9 9 10 10 10 11 11 11 10 10 11 11 11 10 10 10 10 9 8 9 9 9 8 9 10 11 10 10 10 10 7 7 7 8 9 10 8 8 6 5 5 4 6 2 11 10 2 2 7 7 4 5 6 7 6 6 7 8 8 6 6 6 6 6 6
5 5 4 4 5 7 7 8 9 9 9 11 12 11 12 13 11 11 10 11 9 9 9 10 10 10 10 11 10 11 11 10 11 11 10 10 10 9 9 8 9 9 8 9 9 10 9 9 10 9 10 7 8 7 8 9 11 9 6 5 3 3 5 8 12 5 3 8 5 4 4 5 6 6 6 7 8 8 8 8 7 7 7 7 7
5 4 4 4 5 6 7 8 8 8 8 8 7 7 8 9 9 9 9 8 9 8 9 8 8 9 9 8 10 10 10 10 10 11 10 9 10 9 9 9 9 8 8 8 8 9 10 10 9 8 9 9 7 7 7 7 8 9 9 7 4 4 7 9 8 6 9 6 3 5 5 6 5 6 8 8 8 7 7 8 8 9 9 8 7
4 3 4 5 6 6 7 7 7 7 7 7 7 7 8 8 9 9 9 9 10 8 7 6 7 7 6 8 8 9 10 10 10 10 10 10 9 9 9 9 8 8 8 8 8 9 8 8 8 8 8 8 8 8 8 7 5 8 7 6 5 4 4 6 6 9 10 5 4 7 7 4 6 9 9 7 8 8 7 8 9 9 10 9 8
4 4 4 5 6 7 8 8 7 7 7 7 7 7 9 9 10 11 9 9 10 9 8 7 7 6 7 7 7 8 9 9 9 10 10 9 9 9 9 9 9 8 8 8 8 8 7 7 7 7 7 7 8 7 7 7 7 6 7 7 6 5 4 3 4 5 8 11 11 6 3 7 10 8 6 7 9 8 9 9 9 10 9 9 9
3 4 4 5 6 7 8 9 9 8 7 8 8 8 9 9 10 9 11 9 9 8 7 6 6 6 8 7 7 7 8 9 9 9 10 9 9 8 8 9 8 8 7 7 8 8 8 8 8 8 8 7 6 6 6 6 6 6 6 6 6 6 6 4 4 6 7 10 11 9 11 8 6 6 6 8 6 7 9 10 9 10 9 8 8
3 4 5 5 6 7 9 11 10 8 8 9 10 10 9 9 10 10 13 9 8 7 6 7 6 5 7 7 6 6 6 7 8 9 9 9 9 9 8 9 9 8 7 7 6 7 7 7 7 7 7 7 6 6 6 5 5 5 5 5 6 6 5 5 5 7 7 6 10 13 11 14 13 6 5 7 6 8 9 8 8 9 8 7 8
4 4 5 5 6 8 9 11 10 8 8 9 10 10 9 9 10 10 11 11 9 8 8 7 6 6 7 6 6 6 6 6 6 6 8 7 7 8 7 7 6 6 6 7 7 6 6 6 5 6 7 7 6 5 5 6 5 5 6 5 5 5 5 6 7 7 7 8 10 11 11 11 12 15 5 3 7 8 7 6 8 8 7 7 8
Wind_Direction
202 192 171 151 184 187 163 163 158 154 148 149 144 141 135 132 133 126 124 121 123 123 120 119 114 113 112 111 107 106 98 95 96 85 76 76 80 88 89 92 97 94 90 86 83 82 81 78 75 72 68 63 58 56 52 50 46 46 49 52 54 54 55 55 53 50 45 39 48 52 61 60 64 61 65 67 61 53 42 33 17 60 54 56 56
164 188 177 164 176 194 166 165 160 157 151 148 147 141 135 133 131 128 129 125 124 123 124 121 118 114 109 105 105 101 102 98 90 79 70 65 74 95 95 86 87 86 89 86 83 79 78 76 72 68 64 57 52 48 46 44 43 44 44 48 50 52 56 59 58 54 46 44 44 46 43 67 63 62 62 63 64 58 53 46 39 48 57 57 58
163 173 169 162 177 184 168 167 163 159 155 150 148 141 135 134 132 132 130 127 125 125 125 122 119 115 116 117 112 107 105 102 88 79 74 69 65 76 98 96 95 100 94 92 88 84 78 73 66 60 56 52 48 42 39 38 35 34 37 40 42 46 50 59 62 56 55 51 41 90 100 73 62 63 60 62 63 61 58 58 54 52 58 59 60
166 169 166 149 173 196 163 163 168 158 156 149 147 139 138 137 134 133 132 130 128 128 126 126 124 123 117 113 111 111 106 100 92 84 78 71 71 78 98 103 102 95 94 94 92 86 79 72 65 61 57 53 48 42 37 35 35 33 30 31 35 38 42 51 54 57 56 50 21 304 80 84 82 68 70 67 65 64 62 64 65 64 60 58 56
161 162 164 163 176 174 173 159 163 157 157 151 147 142 143 140 139 135 135 132 132 131 132 132 131 127 121 119 118 115 108 103 97 90 80 75 75 78 100 104 103 98 91 83 78 73 69 68 61 58 55 51 48 43 38 34 32 32 30 24 29 37 35 35 52 55 52 19 340 286 77 78 82 74 78 79 75 68 65 66 65 62 62 61 58
167 160 165 166 174 164 161 154 157 157 158 152 148 147 146 146 142 140 138 136 135 135 135 136 138 133 131 127 123 119 116 110 102 92 82 77 76 82 97 105 103 98 89 86 81 81 74 64 60 56 51 46 43 38 34 30 28 27 29 29 27 34 39 34 50 55 44 52 250 66 73 74 79 78 69 77 80 72 69 67 65 61 59 59 64
172 163 169 169 175 167 158 159 158 160 159 154 154 152 149 148 144 143 140 139 139 139 139 137 140 138 135 132 129 126 123 120 112 106 96 84 80 81 94 95 90 91 87 82 84 82 77 70 62 55 52 45 39 35 34 31 26 24 25 27 29 34 44 51 60 43 349 267 43 46 57 55 73 89 79 70 71 75 71 67 61 59 57 55 53
174 168 171 171 182 144 167 155 160 161 159 158 158 154 151 150 149 148 147 142 143 143 144 142 142 142 141 140 137 133 128 130 124 115 106 98 94 89 91 95 95 87 85 82 80 79 79 76 69 62 55 51 41 34 30 26 29 25 27 29 31 39 48 55 61 45 313 331 21 36 33 52 69 91 81 75 69 70 73 66 60 59 55 52 35
172 172 172 172 175 132 164 162 157 162 164 160 157 154 155 156 155 152 147 146 146 149 149 148 152 148 148 146 145 137 140 141 130 120 111 103 101 102 104 108 103 95 93 85 72 72 80 74 72 66 61 54 47 39 34 25 25 32 32 34 38 48 51 51 54 272 237 43 48 62 35 37 59 86 81 72 71 61 33 40 104 70 57 47 49
159 169 171 177 179 125 159 164 159 166 168 164 158 160 160 160 159 159 155 151 151 159 155 155 167 154 155 155 153 157 153 151 142 127 118 115 110 113 114 107 106 103 94 64 56 74 78 72 68 61 56 54 49 41 37 32 27 33 39 41 46 50 56 60 122 254 93 124 74 58 30 329 52 64 74 73 72 65 58 45 50 49 59 60 54
141 157 174 178 168 112 149 162 154 169 172 165 168 167 163 163 160 161 157 160 156 160 161 157 167 165 161 159 168 173 168 149 146 137 132 127 121 122 120 119 118 98 59 51 63 82 79 72 59 54 51 51 48 41 39 36 36 37 41 47 50 57 60 58 271 124 41 38 56 73 89 280 32 64 79 79 83 75 59 48 53 66 61 57 52
127 131 158 182 93 112 116 111 156 169 171 171 176 174 168 164 161 164 162 164 160 167 171 160 172 182 173 176 177 176 165 156 165 146 145 137 132 129 129 125 104 84 71 60 49 63 73 51 67 58 56 56 51 43 40 40 41 42 45 48 59 67 62 316 296 71 81 57 64 15 76 55 59 87 85 75 71 75 68 56 49 47 48 48 49
99 126 145 186 188 126 194 115 61 176 168 182 182 170 175 166 167 165 170 172 164 173 180 160 182 184 190 196 187 188 147 166 165 156 152 149 140 141 136 123 102 91 81 70 66 71 86 92 72 64 63 61 55 48 42 39 41 43 44 53 57 63 41 324 120 95 82 64 94 128 86 85 80 44 55 65 68 55 46 47 47 44 46 48 48
122 172 177 190 181 92 145 159 152 77 180 177 190 179 171 175 174 172 174 168 174 172 182 167 178 212 182 193 224 206 162 169 176 168 155 160 152 149 147 128 115 105 92 85 83 80 93 89 79 71 67 63 60 52 46 42 38 41 43 50 52 47 344 260 39 87 94 104 77 64 61 94 65 357 48 57 44 42 40 43 49 51 47 48 43
104 183 185 194 197 201 115 256 158 167 109 183 189 192 184 180 176 178 175 174 163 159 165 158 178 199 234 184 202 230 191 169 178 185 170 167 159 151 140 130 109 96 83 83 71 82 94 86 77 71 67 65 61 58 52 43 41 36 41 48 48 29 337 55 80 104 104 106 120 135 102 75 39 82 62 54 48 42 29 39 51 56 56 49 39
88 134 182 198 212 200 206 159 247 194 170 147 197 196 199 190 184 178 174 188 160 158 164 161 143 187 229 278 224 226 199 158 182 201 198 168 164 149 146 139 112 92 87 63 60 97 98 82 79 76 69 63 62 61 57 53 46 40 43 45 39 25 6 320 83 78 112 104 102 108 100 74 13 51 44 47 40 25 29 36 33 46 48 37 31
47 88 133 169 217 240 224 216 188 148 201 190 160 185 195 201 182 176 178 169 162 141 158 161 153 140 211 324 18 25 37 123 151 203 185 195 160 142 167 144 114 96 78 62 65 100 92 85 84 77 71 64 59 58 57 56 53 53 52 47 38 33 4 322 83 57 44 66 47 11 51 46 11 66 63 50 22 29 23 33 41 31 35 26 35
37 34 40 26 277 241 260 247 224 220 215 168 141 209 186 198 199 196 182 155 160 142 134 131 130 107 113 91 38 51 55 101 176 156 194 163 122 35 39 148 116 89 83 84 92 102 101 96 88 80 73 66 62 57 50 45 50 52 47 42 38 26 12 315 42 45 43 19 24 359 57 8 351 18 20 27 31 22 18 21 32 23 12 34 49
48 38 34 26 6 313 255 245 246 234 228 226 221 189 213 198 198 169 219 171 170 155 144 139 129 102 91 77 90 126 129 111 94 106 154 143 156 172 15 360 120 103 105 102 101 105 104 97 88 79 76 68 62 58 51 43 47 49 39 28 16 8 322 283 35 23 319 7 357 322 32 344 356 349 344 340 358 7 14 10 7 4 23 26 22
48 39 32 18 354 335 294 249 239 236 231 230 226 230 177 224 194 179 188 228 169 161 152 151 148 141 115 106 104 155 159 145 129 128 197 164 175 176 163 133 110 115 115 112 108 106 108 99 90 86 77 68 62 57 50 44 38 43 37 20 3 296 267 6 359 359 325 34 349 339 13 350 348 341 336 347 359 5 344 352 22 3 359 3 17
32 37 26 10 351 338 328 272 246 236 233 233 234 229 201 170 186 175 182 217 232 157 171 162 161 156 155 144 162 244 240 204 163 184 148 194 145 134 112 102 101 82 106 115 118 123 117 106 98 87 81 79 76 73 56 44 35 27 25 14 303 272 24 348 341 359 8 360 344 35 355 350 343 332 344 338 347 353 3 348 345 351 359 337 25
5 5 21 10 353 348 332 309 254 237 231 229 227 225 219 198 229 207 201 185 224 200 182 215 191 208 119 159 227 237 251 241 210 174 190 180 178 187 139 137 117 123 133 133 137 138 127 118 118 107 101 91 154 332 92 85 62 28 17 316 279 12 9 355 347 358 4 12 343 21 350 348 346 333 330 351 352 354 354 357 346 7 355 352 25
2 354 357 2 359 337 337 318 299 250 236 231 226 223 226 213 228 216 200 210 194 212 230 228 236 246 220 226 231 235 244 255 227 97 287 71 163 223 155 140 132 131 139 148 157 153 133 138 137 125 115 146 203 45 48 351 91 158 238 295 15 11 360 356 344 354 3 20 333 14 353 349 350 338 331 334 348 358 338 338 7 348 0 2 337
352 346 340 352 354 344 334 317 304 276 235 230 229 220 218 218 225 218 201 217 216 200 209 219 215 206 202 223 237 239 235 233 108 117 135 193 173 179 273 181 161 154 155 167 163 149 139 145 132 131 155 173 22 12 23 20 2 359 8 358 13 16 359 354 358 350 345 26 18 9 355 350 347 346 335 323 331 347 332 323 325 319 312 336 298
344 330 351 350 350 343 335 320 313 302 245 240 239 227 216 218 225 228 226 226 220 246 248 217 211 208 208 222 230 227 229 234 219 196 217 215 219 220 206 214 202 182 171 200 201 154 189 159 141 167 167 125 73 26 355 357 7 357 11 13 7 9 356 359 353 347 347 349 38 8 358 349 345 343 343 332 322 322 323 310 304 323 320 310 326
352 355 349 345 350 343 335 326 303 275 253 226 236 242 241 221 217 222 236 230 228 201 223 245 242 235 227 225 228 225 229 235 215 207 202 204 206 217 216 223 217 233 198 211 209 198 242 190 160 169 166 107 77 57 9 353 354 353 360 12 354 355 353 356 353 344 341 345 37 16 360 349 344 344 341 336 330 316 292 305 300 304 299 292 298
354 356 347 354 348 345 340 324 291 246 227 206 237 239 235 224 230 213 224 231 244 242 200 209 205 211 228 224 235 240 239 242 237 221 212 213 215 216 225 213 199 176 223 259 209 204 221 184 204 186 138 139 138 130 103 42 357 347 351 347 350 331 333 345 344 341 333 333 51 54 7 355 351 343 340 336 332 333 329 290 291 288 246 223 277
356 348 342 338 330 337 349 342 267 202 180 167 196 231 239 255 225 253 253 305 348 14 20 15 26 28 353 291 247 240 229 243 237 222 213 215 218 209 214 215 210 181 185 216 234 233 214 198 209 149 142 162 158 153 143 135 119 317 334 339 335 323 334 337 339 335 323 327 326 79 7 4 357 346 342 340 333 330 335 337 295 278 301 255 229
359 350 337 336 330 332 2 41 117 182 150 148 162 162 197 208 80 219 141 25 339 16 103 49 30 27 35 10 289 234 232 231 242 240 167 192 173 213 227 233 229 219 180 195 285 288 267 229 209 201 217 239 166 168 146 137 287 9 333 339 317 329 337 330 338 331 322 319 322 81 19 14 358 356 352 344 337 334 335 334 341 318 275 294 298
357 344 340 333 330 336 4 49 115 130 127 135 133 154 166 179 108 54 41 38 44 43 41 44 35 31 26 17 10 344 298 243 244 221 181 145 120 278 266 286 269 256 157 145 95 323 308 296 283 224 217 250 282 32 300 306 302 335 335 332 325 332 336 331 333 329 329 315 313 327 138 358 4 356 356 351 342 341 337 337 334 339 326 283 272
353 352 344 339 327 343 10 25 87 103 120 123 87 59 54 47 53 57 53 53 54 50 50 51 41 37 23 26 24 20 20 29 31 42 36 39 37 12 23 23 35 32 5 6 28 4 350 317 304 305 299 307 307 28 303 313 324 340 358 327 339 322 327 326 319 319 313 315 319 323 306 163 357 342 343 347 347 340 337 338 337 340 338 330 312
356 350 343 336 339 4 22 39 49 55 66 70 72 72 65 60 56 66 63 58 60 65 60 56 51 44 39 35 32 33 34 47 40 42 44 40 43 48 43 40 37 39 36 32 34 33 16 12 12 2 3 345 343 10 0 325 343 356 345 328 325 323 325 329 319 321 317 321 316 321 324 329 194 260 317 330 338 340 336 338 340 336 334 334 326
352 347 345 349 355 359 23 41 55 55 65 69 69 71 71 69 68 63 65 59 60 59 55 50 48 50 51 54 50 46 42 49 54 53 50 58 57 57 58 56 46 45 44 52 56 41 40 31 28 11 17 336 342 360 12 312 331 349 333 340 323 318 327 320 323 324 332 324 323 324 319 318 317 233 202 292 314 325 330 331 332 332 333 330 333
349 353 356 3 346 9 39 41 49 54 53 58 61 61 61 62 61 61 61 63 57 61 59 54 52 50 50 45 51 58 59 51 65 68 66 64 58 52 47 55 57 63 57 64 69 65 62 52 20 20 29 4 359 9 346 340 341 333 328 335 310 314 314 304 311 319 314 316 318 315 313 316 316 317 319 245 231 299 315 324 319 319 323 330 325
1 357 358 349 6 25 38 55 51 58 56 57 58 60 59 58 58 60 60 59 60 60 54 54 53 48 45 49 45 45 54 62 67 75 72 68 63 55 48 47 50 64 62 57 78 77 78 69 62 54 41 39 23 31 4 349 336 329 325 318 308 309 296 292 288 280 274 287 290 294 307 306 312 315 311 318 223 190 335 331 325 319 318 318 315
5 353 349 4 26 19 44 61 63 63 63 60 63 68 67 67 64 57 59 55 57 53 48 46 44 43 43 46 38 46 45 48 62 67 68 64 65 59 55 59 56 60 67 62 62 64 69 73 55 40 54 57 22 38 12 350 331 318 321 315 310 306 305 298 296 294 300 296 292 301 303 308 309 320 324 306 317 336 82 329 329 328 331 323 314
8 6 10 17 30 27 40 60 63 71 70 68 68 65 66 67 65 60 58 57 52 50 45 39 40 40 37 41 31 35 38 43 49 53 64 62 64 64 59 55 49 47 57 59 57 48 57 65 58 38 44 62 46 46 53 12 339 317 306 293 286 292 291 301 301 307 304 298 315 315 309 303 305 299 301 321 317 315 346 67 314 312 302 302 307
18 24 20 36 48 39 38 47 63 59 63 68 67 65 65 66 61 58 54 53 47 45 44 41 40 40 38 37 30 31 34 41 48 52 60 59 61 59 53 46 49 56 57 54 50 39 34 34 57 50 52 68 55 34 12 340 294 286 293 286 286 277 277 273 288 301 310 331 331 329 322 319 317 320 310 301 301 300 310 299 254 255 251 263 293
35 32 37 48 61 52 49 39 52 71 75 76 75 75 74 70 66 62 57 55 48 42 43 46 44 41 37 33 35 40 37 40 45 51 55 54 57 58 58 52 54 55 58 56 47 35 39 42 48 61 53 52 55 37 345 307 293 270 279 291 281 280 288 291 301 326 342 347 338 323 310 325 329 321 316 311 312 316 314 311 314 316 292 233 286
40 39 55 57 64 69 73 66 59 71 81 78 70 70 66 65 66 60 59 52 51 48 44 47 43 42 37 38 36 39 38 38 40 47 51 50 53 51 50 43 42 45 50 50 46 39 32 41 47 49 66 70 43 19 358 330 293 282 303 298 279 292 286 302 329 40 28 355 341 339 344 343 334 341 328 323 326 320 311 309 306 298 302 290 262
46 49 63 61 60 69 76 70 58 55 72 73 66 68 68 70 64 60 65 57 54 54 52 47 47 44 41 44 43 43 40 40 39 44 49 56 57 52 50 48 47 47 48 47 41 36 30 26 41 50 42 47 38 18 7 325 341 342 338 304 291 222 224 175 91 62 355 339 351 354 0 348 356 355 353 338 320 311 313 312 310 309 309 309 297
48 55 63 67 70 71 76 76 70 71 68 74 82 73 63 61 75 66 67 60 55 53 54 47 45 44 42 43 44 42 42 43 38 39 43 44 48 48 45 43 45 51 53 49 42 37 32 29 17 52 50 41 43 20 14 351 20 354 333 336 279 325 156 98 81 2 340 340 0 31 358 348 5 357 347 335 323 319 324 325 322 318 311 310 308
58 59 64 75 74 73 74 78 77 79 73 77 82 82 80 77 84 84 81 80 65 61 61 55 49 50 46 43 42 45 46 46 43 42 43 42 47 49 46 43 43 44 50 47 42 40 33 31 27 19 36 50 50 35 28 24 9 336 307 314 348 342 132 142 15 342 325 4 15 347 351 359 13 357 342 334 344 345 339 327 318 312 309 308 309
66 66 62 73 73 77 84 89 88 86 86 84 87 89 91 92 89 90 87 84 85 74 68 58 49 47 47 43 42 41 44 49 44 46 50 48 48 51 51 49 47 46 50 51 44 40 34 31 29 26 19 45 36 40 33 31 23 0 16 346 316 323 328 353 341 321 321 16 340 346 16 2 348 347 341 345 344 331 321 319 311 307 308 304 303
65 55 51 66 79 87 90 93 90 91 96 100 100 105 105 102 103 102 100 96 84 76 69 56 48 45 44 36 34 37 40 43 43 43 45 47 46 45 49 50 50 46 49 51 48 40 35 33 28 33 28 29 41 38 40 34 34 26 11 355 352 343 359 324 328 318 96 329 330 0 335 334 339 348 341 328 324 320 320 318 317 312 302 301 297
60 42 40 63 85 93 93 93 93 93 95 97 109 115 115 117 120 114 103 91 79 65 61 59 51 47 47 40 37 37 41 44 43 43 42 43 44 42 42 45 45 43 44 50 49 45 36 33 26 28 31 23 31 37 36 38 43 33 33 38 18 344 329 322 319 317 325 309 357 326 319 331 338 335 326 322 323 323 324 322 319 315 310 303 298
65 60 66 74 82 84 86 87 89 89 86 92 95 102 97 91 90 89 92 95 98 82 79 77 75 67 60 52 48 40 38 44 43 43 42 41 44 42 43 45 45 45 41 44 43 40 37 30 24 31 28 23 25 43 33 16 32 37 25 29 27 1 330 328 340 321 323 334 318 325 322 333 332 325 320 322 327 325 326 322 318 315 312 308 305
81 82 81 81 84 88 90 89 89 90 90 98 91 90 98 97 96 92 90 90 91 100 93 83 79 77 71 60 57 49 42 42 43 41 41 39 40 43 41 44 47 43 43 45 42 34 35 34 30 29 31 33 29 34 32 25 23 16 8 12 8 359 344 339 339 334 313 310 314 313 310 323 319 317 315 334 327 323 322 322 318 314 309 310 307
97 98 98 98 97 97 96 97 95 92 91 94 98 91 94 99 100 103 98 91 95 96 94 89 83 77 76 65 62 57 53 47 44 44 41 41 40 42 42 45 45 43 42 44 41 36 34 31 28 30 29 32 34 24 27 27 20 14 359 5 360 359 343 351 338 341 326 314 307 320 316 311 292 290 315 319 315 330 322 313 312 306 303 305 305
101 108 112 112 109 107 104 101 96 96 99 97 95 94 96 101 99 101 104 105 105 103 98 93 88 81 74 68 62 58 52 50 46 42 42 41 40 40 42 44 46 44 45 43 39 38 33 33 32 32 26 32 30 31 31 16 14 13 5 352 0 355 348 348 348 341 323 301 304 314 318 322 319 310 314 298 316 323 313 304 305 305 305 308 311
119 124 118 118 115 110 109 100 98 100 99 100 102 98 94 94 98 100 103 109 109 108 105 93 89 84 78 70 66 61 56 52 48 44 40 38 43 43 43 45 45 44 43 39 35 32 31 31 30 35 38 31 26 23 27 23 6 12 6 5 3 1 351 339 335 337 325 317 313 307 311 311 306 308 310 278 303 302 290 298 303 300 303 313 313